Torna al catalogo

KINEIS-4B

AttivoComunicazioniSSO
NORAD 63304·PAYLOAD·🇫🇷 France

Lanciato Mar 18, 2025 da Rocket Lab Launch Complex 1

Loading…

Prossimi Passaggi (prossime 24 ore)

TLE

AggiornatoSource: Space-Track

Epoca: Sep 14, 2026, 14:01 UTC

1 63304U 25056E   26257.58409097  .00001071  00000-0  17726-3 0  9993
2 63304  97.9219  19.3404 0005806  25.2078 334.9412 14.72284580 80273

Traccia KINEIS-4B in tempo reale con AllMySat

Download on the App Store